ARIANE 2 DEB

基本信息
目录编号:
33579
目录名称:
ARIANE 2 DEB
国际标识:
1989-006BX
轨道中心:
EARTH
物体状态:
在轨
发射日期:
1989-01-27 UTC
轨道信息
数据来源: 国际轨道数据
星历时间: 2026-07-14T10:45:29+0800
半长轴: 24610.4km
偏心率: 0.7079084
轨道倾角: 11.156°
近地点辐角: 21.872°
升交点赤经: 76.502°
平近点角: 74.275°
近地点: 810.354km
远地点: 35654.172km
周期: 640.380分钟
每日圈数: 2.248665
详细信息
发射场:
FRGUI
轨道高度:
LEO
数据来源:
AOE Integration Group
参考系:
TEME
时间系统:
UTC
历元类型:
SGP4
2D轨道图
3D轨道图
轨道高度分析图
轨道倾角分析图
轨道综合分析图
查看轨道综合分析图